Location: Aiyekoto
(8.4333°N, 4.3667°E)
Time: 08:53:32
(UTC+00:00)

ATLAS 5 CENTAUR R/B - Visible Passes

Search period start: 09 May 2021 00:00
Search period end: 19 May 2021 00:00
Orbit: 516 x 1141 km, 63.3° (Epoch: 02 May)

Date Brightness Start Highest point End Pass type
(mag) Time Alt. Az. Time Alt. Az. Time Alt. Az.
10 May 5.1 21:10:08 10° N 21:10:12 10° N 21:10:12 10° N visible
11 May 4.8 20:50:55 10° N 20:51:47 14° N 20:51:47 14° N visible
12 May 4.5 20:31:42 10° N 20:33:26 18° NNE 20:33:26 18° NNE visible
13 May 4.2 20:12:30 10° N 20:15:08 21° NNE 20:15:08 21° NNE visible
14 May 4.0 19:53:18 10° N 19:56:55 24° NE 19:56:55 24° NE visible
14 May 5.0 21:37:16 10° NW 21:38:28 15° NW 21:38:28 15° NW visible
15 May 3.8 19:34:08 10° NNE 19:38:46 25° NE 19:38:46 25° NE visible
15 May 4.6 21:17:49 10° NW 21:20:20 23° WNW 21:20:20 23° WNW visible
16 May 3.8 19:14:59 10° NNE 19:20:11 24° ENE 19:20:42 23° ENE visible
16 May 4.1 20:58:22 10° NW 21:02:16 32° WNW 21:02:16 32° WNW visible
17 May 3.9 18:55:51 10° NNE 19:00:49 22° ENE 19:02:43 20° E visible
17 May 3.6 20:38:56 10° NW 20:44:18 43° W 20:44:18 43° W visible
18 May 4.0 18:36:44 10° NNE 18:41:28 20° ENE 18:44:49 15° E visible
18 May 3.3 20:19:29 10° NW 20:26:04 51° WSW 20:26:24 50° WSW visible
